Bilbao, Spain

1:15 PM CEST on September 25, 2017 (GMT +0200)
Bilbao

Weather History for LEBB - March, 2013

Change the Weather History Date:

Tuesday, March 26, 2013

  Actual Average Record
Temperature  
Mean Temperature 52 °F -  
Max Temperature 57 °F 62 °F 84 °F (2006)
Min Temperature 48 °F 45 °F 35 °F (2004)
Degree Days  
Heating Degree Days 12    
Growing Degree Days 2 (Base 50)    
Moisture  
Dew Point 49 °F    
Average Humidity 88    
Maximum Humidity 100    
Minimum Humidity 77    
Precipitation  
Precipitation 0.00 in - - ()
Sea Level Pressure  
Sea Level Pressure 29.64 in    
Wind  
Wind Speed 2 mph ()    
Max Wind Speed 8 mph    
Max Gust Speed -    
Visibility 5.4 miles    
Events Rain    
Averages and records for this station are not official NWS values.
T = Trace of Precipitation, MM = Missing Value Source: Averaged Metar Reports

Daily Weather History Graph

Daily Weather History Graph

Search for Another Location

Airport or City:

Trip Planner

Search our weather history database for the weather conditions in past years. The results will help you decide how hot, cold, wet, or windy it might be!

Date:

Astronomy

Mar. 26, 2013 Rise Set
Actual Time 7:04 AM CET 7:31 PM CET
Civil Twilight 6:35 AM CET 7:59 PM CET
Nautical Twilight 6:01 AM CET 8:33 PM CET
Astronomical Twilight 5:27 AM CET 9:08 PM CET
Moon 6:52 PM CET (3/26) 6:13 AM CET (3/26)
Length of Visible Light 13h 24m
Length of Day
12h 27m
Waxing Gibbous, 99% of the Moon is Illuminated
Mar 26
Waxing Gibbous
Mar 27
Full
Apr 3
Last Quarter
Apr 10
New
Apr 18
First Quarter

Hourly Weather History & Observations

Time (CET) Temp. Dew Point Humidity Pressure Visibility Wind Dir Wind Speed Gust Speed Precip Events Conditions
5:00 AM 48.2 °F 48.2 °F 100% 29.68 in 3.7 mi Calm Calm - N/A Rain Light Rain
5:30 AM 48.2 °F 48.2 °F 100% 29.68 in 3.7 mi Calm Calm - N/A Rain Light Rain
6:00 AM 48.2 °F 48.2 °F 100% 29.68 in 3.7 mi Calm Calm - N/A Rain Light Rain
6:30 AM 48.2 °F 48.2 °F 100% 29.68 in 4.3 mi Variable 1.2 mph - N/A Rain Light Rain
7:00 AM 48.2 °F 48.2 °F 100% 29.68 in 4.3 mi Variable 2.3 mph - N/A Rain Light Rain
7:30 AM 48.2 °F 46.4 °F 93% 29.68 in 4.3 mi Variable 1.2 mph - N/A Rain Light Rain
8:00 AM 48.2 °F 48.2 °F 100% 29.68 in 6.2 mi Variable 1.2 mph - N/A   Mostly Cloudy
8:30 AM 48.2 °F 48.2 °F 100% 29.68 in 3.7 mi Variable 1.2 mph - N/A   Mostly Cloudy
9:00 AM 48.2 °F 48.2 °F 100% 29.68 in 5.0 mi Variable 1.2 mph - N/A   Mostly Cloudy
9:30 AM 50.0 °F 48.2 °F 94% 29.68 in 5.0 mi Variable 2.3 mph - N/A   Mostly Cloudy
10:00 AM 51.8 °F 50.0 °F 94% 29.68 in 6.2 mi Variable 1.2 mph - N/A   Scattered Clouds
10:30 AM 53.6 °F 50.0 °F 88% 29.68 in 6.2 mi Variable 1.2 mph - N/A   Scattered Clouds
11:00 AM 53.6 °F 50.0 °F 88% 29.68 in 6.2 mi Calm Calm - N/A   Scattered Clouds
11:30 AM 55.4 °F 50.0 °F 82% 29.68 in 6.2 mi Variable 2.3 mph - N/A   Scattered Clouds
12:00 PM 55.4 °F 50.0 °F 82% 29.68 in 6.2 mi Variable 1.2 mph - N/A   Scattered Clouds
12:30 PM 55.4 °F 50.0 °F 82% 29.65 in 6.2 mi ENE 8.1 mph - N/A   Scattered Clouds
1:00 PM 55.4 °F 50.0 °F 82% 29.65 in 6.2 mi ENE 8.1 mph - N/A   Scattered Clouds
1:30 PM 55.4 °F 50.0 °F 82% 29.65 in 6.2 mi Variable 2.3 mph - N/A   Scattered Clouds
2:00 PM 57.2 °F 50.0 °F 77% 29.65 in 6.2 mi Variable 2.3 mph - N/A   Scattered Clouds
2:30 PM 57.2 °F 50.0 °F 77% 29.62 in 6.2 mi Variable 1.2 mph - N/A   Scattered Clouds
3:00 PM 57.2 °F 50.0 °F 77% 29.62 in 6.2 mi NE 5.8 mph - N/A   Mostly Cloudy
3:30 PM 55.4 °F 48.2 °F 77% 29.62 in 6.2 mi ENE 6.9 mph - N/A   Mostly Cloudy
4:00 PM 55.4 °F 48.2 °F 77% 29.62 in 6.2 mi ENE 5.8 mph - N/A   Mostly Cloudy
4:30 PM 55.4 °F 48.2 °F 77% 29.62 in 6.2 mi ENE 3.5 mph - N/A   Mostly Cloudy
5:00 PM 55.4 °F 48.2 °F 77% 29.59 in 6.2 mi ENE 4.6 mph - N/A   Mostly Cloudy
5:30 PM 55.4 °F 48.2 °F 77% 29.59 in 6.2 mi Variable 2.3 mph - N/A   Mostly Cloudy
6:00 PM 55.4 °F 48.2 °F 77% 29.59 in 6.2 mi Calm Calm - N/A   Mostly Cloudy
6:30 PM 53.6 °F 48.2 °F 82% 29.59 in 6.2 mi Calm Calm - N/A   Mostly Cloudy
7:00 PM 53.6 °F 48.2 °F 82% 29.59 in 5.6 mi Variable 2.3 mph - N/A   Mostly Cloudy
7:30 PM 51.8 °F 48.2 °F 88% 29.59 in 5.6 mi NW 3.5 mph - N/A   Mostly Cloudy
8:00 PM 51.8 °F 48.2 °F 88% 29.59 in 5.6 mi Variable 2.3 mph - N/A   Light Drizzle
8:30 PM 51.8 °F 48.2 °F 88% 29.62 in 5.0 mi Calm Calm - N/A Rain Light Rain
9:00 PM 51.8 °F 48.2 °F 88% 29.62 in 5.0 mi Calm Calm - N/A Rain Light Rain
9:30 PM 50.0 °F 48.2 °F 94% 29.62 in 4.3 mi Calm Calm - N/A Rain Light Rain
10:00 PM 50.0 °F 48.2 °F 94% 29.62 in 4.3 mi Variable 1.2 mph - N/A Rain Light Rain
10:30 PM 50.0 °F 48.2 °F 94% 29.59 in 4.3 mi Variable 1.2 mph - N/A Rain Light Rain
11:00 PM 50.0 °F 48.2 °F 94% 29.59 in 4.3 mi Variable 2.3 mph - N/A Rain Light Rain
11:30 PM 50.0 °F 48.2 °F 94% 29.59 in 5.0 mi Variable 1.2 mph - N/A Rain Light Rain